Weather History for Jackson, MN

Change the Weather History Date:

Saturday, February 2, 2013

  Actual Average Record
Temperature  
Mean Temperature 18 °F -  
Max Temperature 32 °F 26 °F 46 °F (2012)
Min Temperature 5 °F 10 °F -11 °F (2001)
Degree Days  
Heating Degree Days 46    
Moisture  
Dew Point 11 °F    
Average Humidity 80    
Maximum Humidity 93    
Minimum Humidity 68    
Precipitation  
Precipitation 0.00 in - - ()
Sea Level Pressure  
Sea Level Pressure 30.03 in    
Wind  
Wind Speed 8 mph (WSW)    
Max Wind Speed 26 mph    
Max Gust Speed 40 mph    
Visibility 1 miles    
Events Snow    
Averages and records for this station are not official NWS values.
T = Trace of Precipitation, MM = Missing Value Source: NWS Daily Summary

Daily Weather History Graph

Daily Weather History Graph

Search for Another Location

Airport:

Trip Planner

Search our weather history database for the weather conditions in past years. The results will help you decide how hot, cold, wet, or windy it might be!

Date:

Astronomy

Feb. 02, 2013 Rise Set
Actual Time 7:35 AM CST 5:32 PM CST
Civil Twilight 7:04 AM CST 6:03 PM CST
Nautical Twilight 6:30 AM CST 6:37 PM CST
Astronomical Twilight 5:56 AM CST 7:11 PM CST
Moon No Moon Rise 10:31 AM CST (2/2)
Length of Visible Light 10h 58m
Length of Day
9h 57m
Waning Gibbous, 59% of the Moon is Illuminated
Feb 2
Waning Gibbous
Feb 3
Last Quarter
Feb 10
New
Feb 17
First Quarter
Feb 25
Full

Hourly Weather History & Observations

Time (CST) Temp. Windchill Dew Point Humidity Pressure Visibility Wind Dir Wind Speed Gust Speed Precip Events Conditions
12:13 AM 19.4 °F - 12.2 °F 74% 29.98 in 1.5 mi North - - N/A   Haze
12:32 AM 19.4 °F - 12.2 °F 74% 29.99 in 1.5 mi North - - N/A   Haze
12:52 AM 17.6 °F - 12.2 °F 79% 30.00 in 1.5 mi North - - N/A   Haze
1:13 AM 17.6 °F - 10.4 °F 73% 30.01 in 1.5 mi North - - N/A   Haze
1:33 AM 17.6 °F - 10.4 °F 73% 30.01 in 1.2 mi North - - N/A Snow Light Snow
1:52 AM 15.8 °F - 10.4 °F 79% 30.02 in 1.2 mi North - - N/A   Haze
2:13 AM 14.0 °F - 8.6 °F 79% 30.03 in 1.5 mi North - - N/A   Haze
2:32 AM 14.0 °F - 8.6 °F 79% 30.03 in 1.5 mi North - - N/A   Haze
2:53 AM 14.0 °F - 8.6 °F 79% 30.04 in 1.5 mi North - - N/A   Haze
3:12 AM 12.2 °F - 6.8 °F 79% 30.05 in 1.5 mi North - - N/A   Haze
3:33 AM 12.2 °F - 5.0 °F 73% 30.06 in 1.5 mi North - - N/A   Haze
3:53 AM 10.4 °F - 5.0 °F 79% 30.06 in 1.5 mi North - - N/A   Haze
4:12 AM 10.4 °F - 5.0 °F 79% 30.07 in 1.5 mi North - - N/A   Mostly Cloudy
4:33 AM 10.4 °F - 5.0 °F 79% 30.07 in 1.5 mi North - - N/A   Haze
4:53 AM 8.6 °F - 3.2 °F 79% 30.07 in 1.5 mi North - - N/A   Haze
5:12 AM 8.6 °F - 3.2 °F 79% 30.09 in 1.5 mi North - - N/A   Haze
5:33 AM 8.6 °F - 3.2 °F 79% 30.10 in 1.2 mi North - - N/A   Haze
6:12 AM 6.8 °F - 1.4 °F 79% 30.10 in 1.5 mi North - - N/A   Haze
6:33 AM 6.8 °F - 1.4 °F 79% 30.11 in 1.5 mi North - - N/A   Haze
6:53 AM 5.0 °F - 1.4 °F 85% 30.12 in 1.5 mi North - - N/A   Mist
7:12 AM 5.0 °F - 1.4 °F 85% 30.12 in 1.5 mi North - - N/A   Haze
7:33 AM 5.0 °F - 1.4 °F 85% 30.11 in 0.8 mi North - - N/A   Mist
7:53 AM 5.0 °F - 1.4 °F 85% 30.12 in 0.8 mi North - - N/A   Mist
8:33 AM 5.0 °F - 1.4 °F 85% 30.12 in 0.8 mi North - - N/A   Haze
8:53 AM 5.0 °F - 1.4 °F 85% 30.12 in 0.8 mi North - - N/A   Haze
9:12 AM 5.0 °F - 1.4 °F 85% 30.12 in 0.8 mi North - - N/A   Haze
9:33 AM 6.8 °F - 1.4 °F 79% 30.13 in 0.8 mi North - - N/A   Haze
9:53 AM 6.8 °F - 1.4 °F 79% 30.12 in 0.8 mi North - - N/A   Haze
10:12 AM 8.6 °F - 1.4 °F 73% 30.12 in 0.8 mi North - - N/A   Haze
10:33 AM 8.6 °F - 3.2 °F 79% 30.11 in 0.8 mi North - - N/A   Haze
10:53 AM 8.6 °F - 3.2 °F 79% 30.12 in 0.8 mi North - - N/A   Haze
11:12 AM 10.4 °F - 3.2 °F 73% 30.12 in 0.8 mi North - - N/A   Haze
11:33 AM 12.2 °F - 5.0 °F 73% 30.12 in 0.8 mi North - - N/A   Haze
11:53 AM 12.2 °F - 5.0 °F 73% 30.12 in 0.8 mi North - - N/A   Haze
12:12 PM 12.2 °F - 5.0 °F 73% 30.11 in 0.8 mi North - - N/A   Haze
12:33 PM 14.0 °F - 6.8 °F 73% 30.10 in 0.8 mi North - - N/A Snow Light Snow
12:52 PM 14.0 °F 8.2 °F 6.8 °F 73% 30.09 in - West 3.5 mph - N/A   Overcast
1:13 PM 14.0 °F - 8.6 °F 79% 30.07 in - Calm Calm - N/A   Overcast
1:32 PM 15.8 °F 8.6 °F 8.6 °F 73% 30.06 in - SSW 4.6 mph - N/A   Overcast
1:53 PM 17.6 °F 12.3 °F 10.4 °F 73% 30.04 in - SW 3.5 mph - N/A   Overcast
2:13 PM 19.4 °F 10.4 °F 10.4 °F 68% 30.02 in - SW 6.9 mph - N/A   Unknown
2:32 PM 17.6 °F 8.2 °F 10.4 °F 73% 30.02 in - SSW 6.9 mph - N/A   Overcast
2:53 PM 19.4 °F 9.5 °F 10.4 °F 68% 30.02 in - SW 8.1 mph - N/A   Overcast
3:13 PM 19.4 °F 9.5 °F 10.4 °F 68% 30.01 in - SSW 8.1 mph - N/A   Overcast
3:32 PM 19.4 °F 10.4 °F 12.2 °F 74% 30.02 in - SSW 6.9 mph - N/A   Overcast
3:53 PM 19.4 °F 11.5 °F 14.0 °F 80% 30.00 in - South 5.8 mph - N/A   Overcast
4:13 PM 19.4 °F 10.4 °F 14.0 °F 80% 29.99 in - South 6.9 mph - N/A   Overcast
4:33 PM 19.4 °F 9.5 °F 14.0 °F 80% 29.98 in - South 8.1 mph - N/A   Unknown
4:53 PM 19.4 °F 8.6 °F 15.8 °F 86% 29.97 in - SSW 9.2 mph - N/A   Unknown
5:12 PM 19.4 °F 9.5 °F 15.8 °F 86% 29.95 in - SSW 8.1 mph - N/A   Unknown
5:33 PM 21.2 °F 11.7 °F 17.6 °F 86% 29.94 in - SSW 8.1 mph - N/A   Overcast
5:53 PM 21.2 °F 10.9 °F 17.6 °F 86% 29.94 in - SSW 9.2 mph - N/A   Unknown
6:12 PM 21.2 °F 11.7 °F 19.4 °F 93% 29.94 in - SSW 8.1 mph - N/A   Unknown
6:33 PM 23.0 °F 13.1 °F 19.4 °F 86% 29.92 in - SSW 9.2 mph - N/A   Unknown
6:52 PM 23.0 °F 13.1 °F 19.4 °F 86% 29.91 in - SW 9.2 mph - N/A   Overcast
7:13 PM 24.8 °F 14.6 °F 21.2 °F 86% 29.91 in - SW 10.4 mph - N/A   Overcast
7:33 PM 26.6 °F 17.5 °F 21.2 °F 80% 29.91 in - WSW 9.2 mph - N/A   Overcast
7:52 PM 28.4 °F 19.1 °F 24.8 °F 86% 29.91 in - West 10.4 mph - N/A   Unknown
8:13 PM 28.4 °F 19.1 °F 26.6 °F 93% 29.91 in - West 10.4 mph - N/A   Unknown
8:32 PM 30.2 °F 20.8 °F 26.6 °F 86% 29.91 in - West 11.5 mph - N/A   Overcast
8:53 PM 30.2 °F 20.2 °F 26.6 °F 86% 29.91 in - WNW 12.7 mph - N/A   Overcast
9:13 PM 32.0 °F 19.8 °F 26.6 °F 80% 29.92 in - NW 20.7 mph 28.8 mph N/A   Overcast
9:33 PM 28.4 °F 14.4 °F 23.0 °F 80% 29.93 in - NNW 23.0 mph 29.9 mph N/A   Overcast
9:52 PM 26.6 °F 11.7 °F 23.0 °F 86% 29.95 in - NW 24.2 mph 32.2 mph N/A   Overcast
10:13 PM 24.8 °F 10.0 °F 19.4 °F 80% 29.96 in - NW 21.9 mph 40.3 mph N/A   Overcast
10:33 PM 23.0 °F 6.3 °F 19.4 °F 86% 29.97 in - NW 26.5 mph 33.4 mph N/A   Overcast
10:52 PM 23.0 °F 7.2 °F 17.6 °F 80% 29.97 in - NW 23.0 mph 28.8 mph N/A   Overcast
11:13 PM 21.2 °F 4.9 °F 15.8 °F 80% 29.98 in - NW 23.0 mph 32.2 mph N/A   Overcast
11:52 PM 19.4 °F 2.5 °F 14.0 °F 80% 30.00 in - NW 23.0 mph 28.8 mph N/A   Overcast